www.pogodaiklimat.ru

Погода и климат >> Архив погоды >> Россия >> Хакасия >> Шира


ПОГОДА в Шире

  • Прогноз погоды в Шире
  • Монитор погоды в Шире

АРХИВ ПОГОДЫ в Шире

Время (UTC), дата Ветер
(напр.,м/с)
 
Видим.   Явления Облачность Т
(С)
Тd
(С)
f
(%)
Тe
(С)
Тes
(С)
Комфортность P
(гПа)
Po
(гПа)
Тmin
(С)
Tmax
(С)
R
(мм)
R24
(мм)
S
(см)
00 14.03 штиль 0 50 км 3/3 1000 м
[Sc]
+1.0 -10.8 41 +1 +1 1025.6 968.1 -0.9
03 14.03 ЮЗ 5 50 км 8/8 1000 м
[Sc]
+4.5 -4.8 51 0 +1 1028.7 970.7
06 14.03 ЮЗ 8-13
{13}
50 км 4/4 1000 м
[Sc]
+7.9 -4.6 41 +4 +4 1025.4 969.3
09 14.03 З 4
{14}
50 км 8/4 1000 м
[Sc Ac trans]
+8.9 -4.6 38 +7 +7 1026.3 969.3
12 14.03 штиль 0 50 км 10/3 1000 м
[Sc Ac As]
+6.4 -4.5 46 +6 +6 1025.9 969.5 +9.3
15 14.03 СВ 2 н/о 9/0 2000 м
[Ac trans]
+3.2 -4.3 58 +1 +1 1029.0 970.7
18 14.03 В 2 н/о 10/0 2000 м
[Ac As]
+3.7 -5.0 53 +1 +1 1027.4 969.3
21 14.03 штиль 0 н/о 3/0 2000 м
[Ac trans]
+2.7 -5.2 56 +2 +2 1026.3 968.0
00 15.03 штиль 0 50 км ясно -3.9 -7.0 79 -5 -5 1024.4 966.0 -4.1
03 15.03 ЮВ 1 50 км 3/0
[Ci fib]
+5.0 -4.3 51 +4 +8 1024.4 966.7 -4.8
06 15.03 В 3 50 км 8/0
[Ci sp]
+11.1 -6.7 28 +10 +12 1020.3 964.0
09 15.03 В 4 50 км 3/0
[Ci sp]
+14.8 -9.3 18 +14 +16 1018.2 962.7
12 15.03 СВ 3 50 км ясно +6.9 -5.1 42 +5 +5 1016.4 960.6 +15.3
15 15.03 В 1 н/о ясно -0.7 -5.9 68 -2 -2 1019.9 961.3
18 15.03 ЮВ 1 н/о ясно -1.6 -8.3 60 -3 -3 1020.1 961.3
21 15.03 СЗ 2 н/о ясно -1.8 -8.3 61 -5 -5 1018.8 960.0
00 16.03 ЮВ 1 50 км ясно -1.0 -8.4 57 -3 -3 1016.5 959.1 -4.6
03 16.03 ЮВ 2 50 км 8/0 2000 м
[Ac trans]
+5.4 -7.8 38 +4 +5 1015.8 958.7
06 16.03 Ю 2 50 км 9 баллов +10.1 -10.1 23 +9 +10 1014.9 958.7
09 16.03 З 6-10
{13}
50 км 9/6 1000 м
[Sc Ac trans]
+9.0 -4.6 38 +6 +6 1011.7 956.5
12 16.03 ЮЗ 2
{12}
50 км 8/8 600 м
[Cb cap]
+6.6 -3.4 49 +5 +5 1012.6 957.0 +12.5
15 16.03 З 5 н/о ясно -0.2 -6.2 64 -6 -6 1018.4 960.0
18 16.03 З 2 н/о ясно -2.5 -9.4 59 -6 -6 1018.9 960.0
21 16.03 З 4
{11}
н/о ясно -3.7 -11.4 55 -9 -9 1020.6 961.3
00 17.03 Ю 1 50 км ясно -7.6 -12.5 68 -10 -10 1019.4 960.5 -8.2
03 17.03 СЗ 2 50 км 9/6 600 м
[Cb cap Ac trans]
-3.5 -11.0 56 -7 -7 1020.6 961.3
06 17.03 З 4 50 км 9/9 600 м
[Cb cap]
-1.8 -13.6 40 -7 -6 1020.2 961.3
09 17.03 З 6
{15}
50 км 8/8 600 м
[Cb cap]
-0.4 -15.4 31 -6 -6 1019.9 961.3
12 17.03 СЗ 3 50 км 9/9 600 м
[Cb cap]
-3.4 -12.1 51 -8 -8 1023.4 964.0 +0.2
15 17.03 С 3 н/о слаб. ливневой снег 9/9 600 м
[Cb cap]
-6.2 -7.3 92 -12 -12 1025.4 965.3
18 17.03 СЗ 1 н/о слаб. ливневой снег 8/8 600 м
[Cb cap]
-7.7 -8.4 95 -10 -10 1028.6 968.0
21 17.03 СЗ 2 н/о 4 балла -11.0 -12.0 92 -16 -16 1030.8 969.3
00 18.03 СЗ 2 50 км {ливн. осадки} 8/8 600 м
[Cb cap]
-10.4 -11.7 90 -15 -15 1031.1 970.9 -12.1 2 8
03 18.03 СЗ 3 50 км 2 балла -7.3 -11.0 75 -13 -10 1034.2 973.3
06 18.03 СЗ 5 20 км слаб. ливневой снег 10/10 600 м
[Cb cap]
-4.2 -8.7 71 -11 -11 1034.9 974.7
09 18.03 СЗ 1 50 км 7 баллов -1.6 -9.7 54 -3 -2 1034.3 974.7
12 18.03 С 1 50 км {ливн. осадки} 6/6 1000 м
[Sc]
-3.7 -9.7 63 -6 -6 1033.1 974.2 -1.1 0.0
15 18.03 штиль 0 н/о 7 баллов -6.9 -10.1 78 -8 -8 1036.9 976.0
18 18.03 штиль 0 н/о 6/6 1000 м
[Sc]
-9.3 -12.1 80 -10 -10 1037.5 976.0
21 18.03 В 2 н/о 10 баллов -10.6 -12.6 85 -15 -15 1037.8 976.0
00 19.03 В 2 50 км 8/8 1000 м
[Sc]
-12.0 -14.3 83 -17 -17 1034.8 974.0 -12.4 0
03 19.03 Ю 2 50 км 7 баллов -6.5 -11.6 67 -11 -9 1035.5 974.7
06 19.03 Ю 1 50 км 7 баллов -0.7 -12.3 41 -2 +1 1032.7 973.3
09 19.03 З 2 50 км 9 баллов +0.6 -13.4 34 -2 -2 1031.0 972.0
12 19.03 СВ 2 50 км 9/0 2000 м
[Ac trans]
-2.8 -11.0 53 -6 -6 1029.3 970.8 +1.0
15 19.03 С 2 н/о 10 баллов -4.1 -5.6 89 -8 -8 1033.4 973.3
18 19.03 СЗ 1 н/о слаб. снег 10 баллов -5.1 -5.8 95 -8 -8 1033.6 973.3
21 19.03 З 2 н/о слаб. снег 10 баллов -6.4 -6.9 96 -11 -11 1035.4 974.7
00 20.03 СЗ 2 50 км {снег} 10/0 2000 м
[Ac As]
-8.1 -8.8 95 -13 -13 1034.3 974.4 -8.3 0.9 3
03 20.03 З 1 50 км 9 баллов -5.0 -7.4 83 -7 -7 1036.5 976.0
06 20.03 СЗ 2 50 км 7 баллов -1.9 -8.2 62 -5 -3 1035.8 976.0
09 20.03 С 3 50 км 6 баллов -1.2 -7.5 62 -6 -4 1035.6 976.0
12 20.03 ЮВ 1 50 км 4/4 1000 м
[Sc]
-3.5 -8.1 70 -5 -5 1034.9 975.9 +0.3 0.0
15 20.03 Ю 1 н/о ясно -7.8 -9.1 90 -10 -10 1038.5 977.3
18 20.03 ЮВ 1 н/о ясно -10.1 -11.3 91 -12 -12 1039.1 977.3

 

Местоположение метеостанции Шира (Хакасия, Россия): широта 54.50 долгота 89.93 высота над уровнем моря 475 м.

В архиве по умолчанию представлена погода в Шире за последнюю неделю. Архивные данные за месяц целиком и за предыдущие месяцы, начиная с января 2011 года, Вы можете получить, выбрав интересующий диапазон дат из раскрывающегося списка и нажав кнопку "Ввод!".


*Определитесь, кто Вы:
робот инопланетянин человек

Внимание! Время в таблицах - всемирное. Для получения местного времени необходимо прибавить поправку, которая равна 7 ч.

Смотрите также архив погоды в соседних городах и на ближайших метеорологических станциях:

Погода в Коммунаре (Хакасия, Россия) (46 км)
Погода в Копьево-2 (Хакасия, Россия) (59 км)
Погода в Первомайском (Хакасия, Россия) (61 км)
Погода в Ненастной (Хакасия, Россия) (77 км)
Погода в Светлолобово (Красноярский край, Россия) (88 км)
Погода в Ужуре (Красноярский край, Россия) (89 км)
Погода в Уйбате (Хакасия, Россия) (91 км)
Погода в Лебяжьем (Красноярский край, Россия) (112 км)
Погода в Хакасской (Хакасия, Россия) (122 км)
Погода в Шарыпово (Красноярский край, Россия) (124 км)

Пояснения к столбцам:

Ветер - указаны скорость ветра в м/с - средняя за 10 мин, порывы в срок и между сроками (в фигурных скобках) и направление, откуда дует ветер: С - северный, СВ - северо-восточный, В - восточный, ЮВ - юго-восточный, Ю - южный, ЮЗ - юго-западный, З - западный, СЗ - северо-западный.
Видимость - горизонтальная дальность видимости в метрах или километрах. При видимости от 1 до 10 км при отсутствии осадков обычно наблюдается дымка, при ухудшении видимости до 1 км и менее - туман. В сухую погоду видимость может ухудшаться дымом, пылью или мглою.
Явления - указаны атмосферные явления, наблюдавшиеся в срок или в последний час перед сроком; фигурными скобками обозначены явления, наблюдавшиеся между сроками (за 1-3 часа до срока); квадратными скобками обозначены град или гололедные отложения с указанием их диаметра в мм.
Облачность - указаны через наклонную черту общая и нижняя облачность в баллах и высота нижней границы облаков в метрах; квадратными скобками обозначены формы облаков: Ci - перистые, Cs - перисто-слоистые, Cc - перисто-кучевые, Ac - высококучевые, As - высокослоистые, Sc - слоисто-кучевые, Ns - слоисто-дождевые, Cu - кучевые, Cb - кучево-дождевые. Подробнее классификацию облаков см. в Атласе облаков (PDF).
T - Температура воздуха - температура, измеренная на высоте 2 м над землей.
Td - Температура точки росы - температура, при понижении до которой содержащийся в воздухе водяной пар достигнет насыщения.
f - Относительная влажность воздуха - влажноcть воздуха, измеренная на высоте 2 м над землей.
Te - Эффективная температура - температура, которую ощущает одетый по сезону человек в тени. Характеристика душности погоды. При расчете учитывается влияние влажности воздуха и скорости ветра на теплоощущения человека.
Tes - Эффективная температура на солнце - температура, которую ощущает человек, с поправкой на солнечный нагрев. Характеристика знойности погоды. Зависит от высоты солнца над горизонтом, облачности и скорости ветра. Ночью, в пасмурную погоду, а также при ветре 12 м/с и более поправка равна нулю.
P - Атмосферное давление - приведенное к уровню моря атмосферное давление.
Po - Атмосферное давление - измеренное на уровне метеостанции атмосферное давление.
Tmin - Минимальная температура - минимум температуры воздуха на высоте 2 м над землей.
Tmax - Максимальная температура - максимум температуры воздуха на высоте 2 м над землей.
R - Количество осадков - Количество выпавших осадков за период времени, мм. При наведении курсора мыши на число - период времени, за который выпало указанное количество осадков.
R24 - Количество осадков - Количество выпавших осадков за 24 часа, мм.
S - Снежный покров - Высота снежного покрова, см. При наведении курсора мыши на число - состояние снежного покрова и степень покрытия местности в баллах.